Location: Dal�� Lhota
(48.7500°N, 14.0167°E)
Time: 18:28:03
(UTC+00:00)

Vanguard 3 - Pass Details

Date: 07 August 2021
Orbit: 510 x 3260 km, 33.3° (Epoch: 20 September)

Event Time Altitude Azimuth Distance (km) Brightness Sun altitude
Rises 15:02:22 0° 223° (SW) 4,574 11.7 33.0°
Reaches altitude 10° 15:05:20 10° 214° (SW) 3,934 11.4 32.5°
Maximum altitude 15:14:58 34° 154° (SSE) 3,333 10.4 30.9°
Drops below altitude 10° 15:29:24 10° 99° (E) 5,903 11.1 28.6°
Sets 15:35:05 0° 92° (E) 7,130 11.4 27.7°
